Wind_Speed
14 14 15 15 15 15 15 15 15 15 16 16 16 16 18 19 19 19 17 6 4 7 3 2 2 1 1 3 3 4 3 3 5 6 4 2 1 3 5 11 12 11 18 11 7
17 17 17 17 17 17 17 17 17 17 17 17 18 19 19 20 21 15 2 4 7 7 5 4 4 2 2 3 3 3 3 8 6 5 4 3 5 4 4 12 11 21 26 24 26
17 17 18 18 18 19 19 18 18 18 18 17 17 18 19 19 15 2 5 3 7 7 5 5 4 3 4 5 5 5 6 4 5 12 8 5 4 7 5 7 17 13 14 12 15
19 19 20 21 20 20 20 20 20 20 19 19 19 18 17 15 5 4 7 4 6 6 6 6 4 2 2 4 6 3 13 9 5 8 5 3 4 5 15 27 27 23 20 20 18
21 22 22 22 21 21 20 21 21 21 19 19 19 17 16 7 7 7 6 4 6 6 7 7 6 3 3 3 4 5 4 13 20 22 20 19 14 10 25 33 29 25 19 16 12
23 23 23 23 22 23 22 21 21 20 20 18 18 16 11 3 7 7 4 5 7 8 8 7 4 4 4 4 4 4 10 15 18 25 17 9 6 10 16 9 11 11 14 16 17
23 23 23 23 23 23 23 22 21 20 19 16 14 12 10 10 7 4 3 5 8 9 8 8 7 5 1 5 7 9 8 9 12 8 9 12 5 13 30 18 16 16 14 18 20
24 25 26 25 24 23 22 22 22 20 16 12 8 5 4 4 4 2 3 6 6 7 7 6 6 6 4 7 7 3 2 5 4 6 4 9 8 7 13 15 17 18 20 21 18
25 25 25 25 25 22 21 22 22 16 10 7 3 4 2 0 2 8 8 5 5 7 6 6 4 4 2 2 4 2 6 5 8 6 2 4 6 8 5 12 17 25 25 18 10
27 27 26 24 24 20 21 20 17 11 5 4 4 3 2 4 11 8 6 7 6 5 4 4 3 1 2 3 6 6 5 5 5 2 2 6 13 13 28 18 24 24 19 8 1
27 26 25 24 21 20 19 13 8 3 7 5 7 6 6 7 5 4 6 8 8 4 3 1 2 9 11 12 2 2 4 9 9 9 4 9 17 16 22 10 16 18 10 6 5
27 25 23 23 16 20 17 8 7 7 9 3 2 5 5 6 4 5 6 6 4 5 4 3 11 16 6 10 10 13 12 14 12 8 7 7 17 11 12 10 10 13 11 10 9
27 25 21 20 11 18 16 13 7 6 3 6 1 3 4 6 5 4 10 4 4 4 6 7 7 5 3 5 9 10 9 9 11 7 6 2 9 6 3 7 16 14 15 17 17
26 24 20 18 6 15 10 13 6 3 4 3 2 2 7 9 5 5 8 4 2 5 4 6 7 6 5 6 8 12 11 17 16 3 4 0 5 5 1 2 5 12 18 18 17
25 20 17 16 10 13 14 11 4 1 5 4 3 3 18 2 10 2 4 3 4 5 3 7 6 10 9 9 7 10 8 7 4 4 1 4 1 6 4 2 3 6 18 20 19
24 18 13 17 12 16 14 7 1 5 6 4 6 7 8 8 6 6 1 4 4 4 4 10 7 5 7 5 8 5 2 1 3 4 4 10 7 5 4 7 4 5 20 21 23
23 14 11 18 20 15 12 1 5 4 6 8 5 7 5 5 6 8 5 6 5 7 4 6 7 5 1 5 5 2 4 3 1 1 6 2 3 5 5 11 9 9 16 20 23
22 11 8 19 15 13 8 4 1 4 4 4 5 9 3 9 5 9 4 4 6 5 4 4 7 5 6 2 4 5 6 3 3 2 3 5 4 4 13 16 16 15 15 20 23
20 8 10 18 13 11 3 5 1 3 5 8 10 4 4 5 4 8 4 5 5 7 4 5 6 9 12 4 2 5 4 2 4 6 0 3 4 3 8 9 13 13 18 19 22
17 3 20 18 11 8 5 3 2 3 5 4 3 5 4 7 8 9 2 6 6 8 4 3 9 4 6 7 6 4 4 3 2 3 4 3 6 5 8 8 8 9 16 18 24
9 2 20 11 7 10 4 2 2 7 12 5 3 5 4 4 4 4 3 3 6 9 8 4 2 6 8 4 8 7 4 4 1 2 3 2 3 4 9 11 9 9 13 17 21
5 3 21 10 8 4 2 4 5 8 9 4 4 3 3 5 4 4 5 2 12 6 5 4 4 6 5 18 7 3 7 6 3 4 3 4 3 7 10 9 11 11 13 17 20
4 5 14 9 4 3 4 3 6 8 6 6 5 5 4 4 5 2 5 5 8 13 5 4 2 5 9 1 8 6 6 12 8 2 4 3 3 6 10 9 7 6 9 14 19
4 3 9 16 9 3 4 4 5 7 1 6 2 3 4 3 1 6 10 5 17 14 20 8 4 7 8 4 5 13 14 8 4 4 6 8 8 7 5 5 7 10 7 11 16
7 4 5 4 7 7 3 3 4 7 6 8 0 4 4 4 9 4 8 14 8 20 5 2 4 4 4 9 12 15 19 14 12 12 12 10 8 3 2 5 6 9 7 10 20
6 4 4 5 6 3 6 4 5 4 3 4 4 9 5 7 8 15 12 13 9 5 4 2 8 5 9 10 6 11 13 9 4 10 6 6 5 5 4 3 11 13 11 11 19
11 7 3 6 3 1 1 3 6 8 5 8 13 8 6 5 15 23 27 27 14 11 7 4 3 3 3 4 9 2 10 11 5 7 9 7 3 3 4 7 10 11 15 13 20
Wind_Direction
356 352 350 347 342 337 333 331 329 326 324 324 324 323 325 326 322 315 306 273 222 216 256 263 269 307 212 178 163 153 81 232 243 173 231 221 67 240 249 264 244 227 245 240 229
355 351 346 342 336 332 329 325 319 317 316 316 315 318 320 320 322 318 7 302 220 212 232 233 235 252 202 207 196 132 163 221 209 189 209 247 234 221 261 255 256 263 269 268 259
351 347 341 336 332 329 324 317 314 311 309 307 308 310 314 319 323 230 336 304 211 216 245 256 244 213 188 195 204 183 216 225 246 235 253 212 258 264 216 274 252 246 288 281 277
349 344 341 337 332 328 321 314 311 307 306 307 305 308 307 313 314 316 313 281 215 222 244 246 227 220 241 216 201 234 246 234 257 245 250 231 268 248 229 256 272 284 286 284 277
348 347 343 338 334 329 324 317 313 307 303 298 298 300 302 292 258 284 294 267 237 245 253 244 233 213 232 248 301 225 247 258 266 271 262 272 245 242 263 268 274 276 271 272 279
353 349 345 340 335 330 326 321 316 310 303 296 296 294 286 247 254 280 280 255 241 247 248 234 239 235 267 243 201 290 285 278 280 269 254 220 262 190 267 264 261 253 261 263 273
354 349 345 341 336 333 328 326 321 314 303 298 291 286 277 278 279 273 275 257 251 243 232 230 237 240 294 298 291 293 305 303 259 246 222 213 254 226 257 258 266 257 270 288 284
351 347 344 341 338 337 334 328 320 316 314 311 297 290 256 291 276 275 293 279 265 242 251 258 248 247 224 296 318 288 270 306 298 170 221 174 261 257 258 253 265 264 281 297 296
349 347 342 340 338 338 339 331 322 324 339 342 348 303 274 269 341 314 285 266 233 231 241 244 262 211 171 155 310 281 260 233 310 214 84 199 267 258 222 232 258 275 283 298 289
349 348 343 341 340 342 342 333 319 327 5 10 35 336 283 292 314 303 287 234 216 226 250 216 182 220 165 134 240 226 237 242 236 317 301 263 265 279 284 261 252 267 275 265 296
350 348 345 343 343 346 352 334 333 314 338 299 303 275 315 326 287 278 256 221 223 209 182 179 246 239 218 211 250 327 262 264 272 264 292 256 264 270 278 242 246 245 237 158 93
349 350 347 345 345 353 350 40 33 328 320 317 330 291 324 339 304 260 217 196 192 225 156 239 253 249 235 224 235 251 263 275 282 261 184 263 278 272 278 277 255 182 141 98 84
349 349 351 347 341 353 8 23 5 332 290 300 282 303 358 321 284 257 197 227 211 246 203 203 242 14 237 220 240 245 239 251 247 320 241 241 284 306 11 41 90 100 103 82 70
349 348 351 355 352 350 2 357 339 326 43 286 354 354 1 311 281 244 223 229 244 251 255 240 268 266 279 244 223 260 214 246 261 177 243 162 273 306 201 52 40 74 73 68 62
348 349 353 1 352 356 345 344 345 8 2 311 4 332 343 273 308 347 242 248 259 263 359 257 290 296 289 254 185 255 236 213 210 197 6 217 268 274 121 138 63 37 64 59 56
347 344 356 4 358 349 345 348 70 43 256 343 345 5 3 333 323 315 266 265 295 276 227 256 270 251 240 273 217 251 278 358 55 134 236 244 193 274 215 162 122 55 62 57 52
343 340 347 360 347 348 341 330 28 136 343 353 344 351 351 307 322 7 20 21 24 346 350 325 266 249 287 330 330 97 62 285 313 179 232 298 159 45 15 88 98 79 57 53 51
343 342 352 353 343 342 341 48 161 35 357 337 326 311 328 17 358 339 22 27 24 359 299 320 324 5 2 291 283 272 186 205 295 232 226 189 220 99 63 60 57 64 61 46 45
343 347 360 351 349 346 351 54 284 339 313 333 318 340 335 8 0 5 54 11 33 8 0 343 270 328 327 324 326 314 268 208 226 243 105 200 107 102 81 69 38 34 45 34 33
344 358 4 357 1 359 68 114 93 25 327 346 306 34 326 340 3 8 6 357 349 348 322 311 292 270 322 328 274 240 310 317 7 248 239 238 167 140 137 87 50 43 24 25 32
353 65 0 358 5 48 87 73 51 15 15 354 324 311 350 340 321 283 332 31 357 345 1 330 256 296 343 319 321 338 352 335 138 216 275 280 84 54 68 60 52 54 33 26 30
13 46 3 15 47 34 53 349 35 6 9 339 7 38 336 333 298 279 349 54 31 12 352 284 278 288 273 281 294 20 44 40 11 344 301 294 93 69 70 52 63 46 20 26 27
35 12 14 24 71 16 336 53 62 11 7 3 352 51 10 350 314 320 344 310 342 359 8 300 276 317 323 33 27 29 355 13 348 346 270 334 79 66 76 60 49 47 15 18 10
27 19 29 56 54 69 25 11 10 5 71 352 341 63 358 319 290 299 311 308 324 308 315 325 243 210 251 310 328 302 310 324 299 271 275 248 272 85 61 46 9 4 1 7 4
47 52 16 359 16 44 66 25 13 6 340 342 99 63 333 294 299 253 307 301 312 305 336 302 271 303 303 302 280 277 292 293 266 252 256 284 290 141 55 359 350 354 315 343 353
66 33 39 12 9 40 8 2 15 335 280 323 324 325 298 258 271 298 298 295 283 295 255 198 280 325 296 270 256 300 295 307 9 22 12 306 119 27 343 318 329 345 327 310 338
49 39 50 16 3 35 5 322 352 336 319 345 321 309 293 296 313 295 285 281 273 285 274 261 257 227 259 285 308 315 56 42 20 45 16 358 271 231 323 323 307 303 311 292 317
Height
1531 1529 1526 1524 1522 1519 1516 1514 1512 1509 1507 1504 1502 1499 1497 1495 1492 1489 1486 1487 1487 1488 1489 1489 1490 1490 1490 1491 1491 1491 1501 1503 1491 1489 1481 1478 1479 1478 1477 1476 1475 1475 1472 1474 1475
1531 1529 1526 1523 1520 1517 1515 1512 1509 1507 1505 1503 1500 1498 1496 1492 1490 1486 1485 1484 1484 1486 1487 1487 1488 1489 1490 1490 1491 1492 1500 1489 1479 1477 1478 1477 1477 1477 1476 1472 1469 1469 1467 1467 1470
1530 1527 1524 1521 1518 1515 1512 1508 1506 1504 1502 1499 1497 1495 1493 1490 1486 1484 1484 1484 1484 1485 1486 1487 1487 1487 1486 1488 1489 1489 1489 1480 1475 1474 1475 1475 1475 1474 1472 1467 1461 1462 1462 1463 1462
1529 1525 1522 1519 1515 1512 1509 1505 1503 1500 1498 1496 1494 1492 1489 1489 1493 1486 1485 1484 1484 1485 1486 1486 1486 1487 1488 1486 1483 1487 1479 1477 1473 1472 1472 1471 1471 1469 1467 1457 1457 1458 1459 1458 1458
1527 1523 1520 1516 1513 1509 1505 1501 1498 1496 1493 1491 1490 1489 1487 1487 1484 1481 1482 1483 1485 1486 1486 1485 1485 1485 1486 1485 1485 1481 1474 1474 1473 1470 1469 1468 1465 1466 1456 1454 1454 1455 1455 1453 1453
1526 1522 1518 1513 1509 1505 1501 1497 1494 1491 1489 1487 1486 1485 1484 1486 1481 1481 1480 1481 1481 1482 1483 1483 1484 1485 1484 1482 1483 1476 1474 1469 1465 1463 1464 1463 1459 1462 1444 1447 1448 1450 1450 1449 1448
1524 1520 1515 1511 1506 1502 1497 1494 1490 1487 1484 1483 1482 1481 1481 1481 1479 1480 1480 1480 1479 1477 1480 1481 1482 1484 1485 1482 1479 1477 1475 1466 1457 1452 1456 1455 1460 1453 1441 1447 1446 1446 1446 1445 1444
1523 1518 1513 1509 1504 1500 1495 1491 1487 1484 1481 1480 1479 1479 1478 1478 1477 1477 1478 1478 1480 1481 1481 1481 1481 1481 1482 1481 1478 1477 1476 1474 1454 1452 1450 1454 1454 1438 1439 1443 1443 1442 1441 1440 1438
1521 1517 1512 1507 1502 1498 1494 1488 1484 1481 1479 1477 1478 1478 1478 1476 1475 1476 1477 1477 1476 1475 1475 1476 1478 1478 1478 1481 1485 1481 1478 1474 1462 1451 1452 1453 1450 1438 1438 1439 1439 1437 1436 1434 1433
1520 1516 1510 1505 1500 1497 1492 1487 1482 1481 1480 1478 1478 1478 1477 1477 1476 1476 1476 1474 1474 1475 1477 1478 1477 1478 1478 1482 1483 1482 1479 1468 1464 1454 1453 1454 1449 1440 1431 1435 1433 1432 1432 1432 1430
1520 1515 1509 1504 1499 1495 1492 1488 1488 1484 1481 1480 1480 1478 1476 1476 1474 1473 1474 1474 1474 1476 1479 1479 1482 1479 1472 1471 1467 1468 1468 1467 1457 1452 1454 1451 1445 1439 1429 1428 1428 1427 1428 1428 1428
1518 1513 1508 1503 1499 1495 1493 1489 1492 1493 1485 1479 1478 1478 1478 1476 1475 1473 1475 1477 1475 1476 1474 1477 1472 1460 1463 1467 1468 1465 1467 1462 1453 1446 1453 1448 1440 1433 1428 1421 1419 1422 1425 1425 1425
1517 1511 1507 1502 1498 1495 1492 1493 1493 1492 1490 1480 1479 1479 1479 1479 1474 1472 1474 1473 1474 1474 1475 1477 1463 1458 1460 1464 1464 1461 1464 1459 1455 1446 1443 1444 1442 1429 1426 1423 1422 1424 1425 1424 1424
1515 1510 1506 1502 1499 1495 1493 1493 1491 1492 1497 1481 1479 1479 1479 1477 1474 1472 1471 1474 1473 1472 1470 1470 1461 1460 1459 1460 1460 1459 1449 1446 1446 1450 1457 1442 1458 1433 1427 1430 1429 1428 1426 1424 1425
1514 1509 1506 1501 1501 1497 1496 1492 1491 1492 1519 1484 1481 1480 1479 1479 1476 1472 1472 1472 1472 1470 1471 1465 1460 1458 1458 1453 1450 1446 1441 1442 1441 1446 1449 1445 1450 1436 1428 1434 1435 1433 1430 1429 1428
1514 1509 1506 1503 1500 1498 1494 1492 1492 1504 1514 1487 1483 1484 1483 1479 1476 1473 1472 1472 1470 1467 1465 1461 1456 1455 1448 1444 1443 1438 1438 1440 1444 1450 1458 1435 1442 1439 1432 1429 1436 1437 1434 1433 1431
1512 1508 1506 1503 1500 1497 1494 1493 1507 1515 1494 1497 1496 1491 1491 1486 1479 1477 1477 1483 1486 1482 1473 1466 1456 1446 1446 1445 1440 1439 1446 1449 1455 1458 1444 1435 1440 1443 1433 1435 1439 1439 1439 1437 1435
1510 1507 1506 1503 1500 1497 1494 1497 1505 1508 1508 1503 1499 1495 1489 1491 1486 1484 1483 1490 1489 1490 1486 1480 1468 1449 1449 1448 1448 1442 1443 1444 1442 1445 1441 1432 1433 1442 1445 1445 1446 1444 1443 1442 1438
1508 1506 1505 1502 1499 1497 1496 1514 1522 1517 1515 1511 1502 1497 1494 1494 1495 1490 1493 1499 1496 1495 1496 1488 1468 1452 1449 1449 1448 1440 1439 1433 1441 1443 1453 1436 1441 1447 1448 1451 1450 1449 1444 1446 1443
1507 1505 1504 1501 1499 1498 1499 1514 1516 1517 1515 1513 1512 1507 1508 1507 1505 1503 1495 1504 1500 1496 1495 1489 1484 1461 1455 1448 1442 1441 1440 1440 1446 1438 1437 1432 1432 1433 1445 1450 1453 1451 1451 1449 1443
1506 1506 1506 1501 1499 1498 1517 1518 1517 1518 1518 1519 1516 1514 1514 1514 1510 1505 1498 1506 1501 1498 1493 1492 1493 1468 1463 1454 1450 1451 1450 1445 1443 1447 1429 1428 1435 1446 1449 1453 1456 1456 1455 1451 1447
1507 1507 1506 1502 1504 1514 1520 1520 1521 1520 1519 1518 1517 1517 1517 1515 1512 1506 1504 1504 1504 1501 1500 1495 1492 1488 1471 1453 1454 1453 1462 1459 1460 1454 1453 1443 1441 1454 1456 1459 1458 1458 1457 1454 1452
1510 1511 1509 1504 1518 1523 1521 1521 1522 1522 1522 1520 1519 1519 1518 1519 1517 1509 1510 1505 1505 1505 1502 1497 1492 1494 1466 1457 1458 1464 1465 1469 1468 1469 1460 1458 1447 1460 1460 1460 1461 1459 1459 1455 1454
1514 1516 1515 1515 1523 1524 1526 1528 1528 1526 1524 1523 1522 1521 1521 1521 1518 1514 1509 1505 1502 1502 1499 1494 1489 1487 1486 1482 1483 1473 1470 1474 1476 1474 1459 1452 1448 1461 1462 1462 1460 1458 1457 1455 1455
1519 1529 1529 1530 1527 1529 1528 1530 1529 1528 1525 1522 1522 1523 1524 1521 1515 1511 1509 1502 1501 1497 1497 1496 1493 1489 1487 1485 1481 1477 1471 1471 1470 1467 1466 1455 1452 1464 1464 1464 1462 1461 1457 1455 1452
1526 1529 1530 1532 1531 1529 1530 1533 1531 1530 1528 1525 1524 1524 1522 1520 1518 1513 1511 1505 1501 1495 1496 1493 1492 1490 1489 1477 1474 1470 1467 1463 1462 1468 1464 1458 1465 1465 1465 1464 1462 1460 1457 1455 1452
1531 1532 1530 1535 1533 1532 1535 1534 1534 1532 1528 1526 1525 1522 1519 1514 1511 1506 1502 1499 1498 1497 1492 1495 1491 1488 1482 1475 1473 1474 1471 1473 1472 1468 1468 1469 1468 1466 1465 1464 1462 1458 1456 1453 1450